Location: Augustenthal
(51.7167°N, 10.2833°E)
Time: 19:09:13
(UTC+00:00)

Cosmos 967 Rocket - Pass Details

Date: 18 May 2021
Orbit: 952 x 985 km, 65.8° (Epoch: 21 June)

Event Time Altitude Azimuth Distance (km) Brightness Sun altitude
Rises 20:54:08 0° 217° (SW) 3,617 7.3 -12.2°
Reaches altitude 10° 20:56:40 10° 218° (SW) 2,675 6.6 -12.4°
Maximum altitude 21:02:55 90° 144° (SE) 962 4.5 -12.9°
Drops below altitude 10° 21:09:15 10° 41° (NE) 2,701 7.1 -13.4°
Sets 21:11:49 0° 41° (NE) 3,654 7.8 -13.6°
